Date String (YYYY-MM-DD hh:mm:ss) UTC,Instrument flags,Ambient pressure (hPa),Sample flow (lpm),Bypass flow (lpm),Sample temperature (°C),Ambient temperature (°C),ASC tube jacket temperature (°C),LED temperature (°C),Box temperature (°C),Sample RH (%),Span deviation,Mass concentration (μg/m³),Mass concentration (μg/m³),Mass concentration (μg/m³)
DateTimeUTC,F1_M11,P_M11,Q1_M11,Q2_M11,T1_M11,T2_M11,T3_M11,T4_M11,T5_M11,U1_M11,ZSPAN_M11,X0_M11,X2_M11,X1_M11
2022-10-24 05:00:00,,0816.5,4.99,0.00,24.0,21.9,00.0,32.9,25.7,16.9,0000.0,0002.67,0001.45,0001.02
2022-10-24 05:01:00,,0816.5,4.99,0.00,23.9,21.7,00.0,32.9,25.6,17.0,0000.0,0002.98,0001.47,0001.03
2022-10-24 05:02:00,,0816.5,5.02,0.00,23.9,21.6,00.0,32.9,25.6,17.0,0000.0,0003.32,0001.47,0001.04
2022-10-24 05:03:00,,0816.5,4.99,0.00,23.8,21.4,00.0,32.8,25.5,17.1,0000.0,0003.98,0001.52,0001.05
2022-10-24 05:04:00,,0816.5,4.99,0.00,23.8,21.4,00.0,32.8,25.5,17.3,0000.0,0004.01,0001.53,0001.06
2022-10-24 05:05:00,,0816.5,4.99,0.00,23.8,21.3,00.0,32.8,25.5,17.3,0000.0,0004.88,0001.53,0001.06
2022-10-24 05:06:00,,0816.6,5.01,0.00,23.7,21.3,00.0,32.8,25.4,17.4,0000.0,0006.82,0001.55,0001.07
2022-10-24 05:07:00,,0816.6,5.02,0.00,23.7,21.2,00.0,32.7,25.4,17.5,0000.0,0007.07,0001.55,0001.07
2022-10-24 05:08:00,,0816.7,4.99,0.00,23.6,21.2,00.0,32.7,25.3,17.7,0000.0,0007.01,0001.52,0001.07
2022-10-24 05:09:00,,0816.6,4.99,0.00,23.6,21.2,00.0,32.7,25.3,17.8,0000.0,0007.94,0001.59,0001.08
2022-10-24 05:10:00,,0816.7,5.00,0.00,23.6,21.2,00.0,32.6,25.3,17.9,0000.0,0008.09,0001.60,0001.08
2022-10-24 05:11:00,,0816.7,4.99,0.00,23.5,21.2,00.0,32.6,25.3,17.9,0000.0,0008.08,0001.62,0001.07
2022-10-24 05:12:00,,0816.7,5.00,0.00,23.5,21.2,00.0,32.6,25.3,17.9,0000.0,0008.23,0001.61,0001.07
2022-10-24 05:13:00,,0816.6,5.00,0.00,23.5,21.3,00.0,32.6,25.2,17.7,0000.0,0008.31,0001.62,0001.07
2022-10-24 05:14:00,,0816.6,5.00,0.00,23.5,21.2,00.0,32.5,25.2,17.6,0000.0,0008.06,0001.63,0001.08
2022-10-24 05:15:00,,0816.6,5.02,0.00,23.5,21.2,00.0,32.5,25.2,17.6,0000.0,0008.08,0001.62,0001.08
2022-10-24 05:16:00,,0816.6,5.00,0.00,23.5,21.3,00.0,32.5,25.2,17.7,0000.0,0007.28,0001.60,0001.08
2022-10-24 05:17:00,,0816.6,5.00,0.00,23.4,21.3,00.0,32.5,25.2,17.7,0000.0,0005.96,0001.66,0001.07
2022-10-24 05:18:00,,0816.6,5.00,0.00,23.4,21.3,00.0,32.5,25.2,17.6,0000.0,0005.74,0001.65,0001.07
2022-10-24 05:19:00,,0816.7,5.00,0.00,23.4,21.3,00.0,32.4,25.2,17.4,0000.0,0005.64,0001.65,0001.07
2022-10-24 05:20:00,,0816.8,4.99,0.00,23.4,21.3,00.0,32.4,25.1,17.3,0000.0,0004.16,0001.59,0001.06
2022-10-24 05:21:00,,0816.8,5.00,0.00,23.4,21.3,00.0,32.4,25.1,16.9,0000.0,0003.92,0001.58,0001.06
2022-10-24 05:22:00,,0817.1,5.00,0.00,23.4,21.2,00.0,32.4,25.1,16.6,0000.0,0003.91,0001.58,0001.07
2022-10-24 05:23:00,,0817.1,5.02,0.00,23.3,21.2,00.0,32.3,25.0,16.8,0000.0,0003.64,0001.59,0001.08
2022-10-24 05:24:00,,0817.0,5.00,0.00,23.3,21.2,00.0,32.3,25.0,16.6,0000.0,0003.23,0001.60,0001.07
2022-10-24 05:25:00,,0817.2,4.99,0.00,23.3,21.1,00.0,32.3,25.1,16.7,0000.0,0003.16,0001.58,0001.06
2022-10-24 05:26:00,,0816.9,5.00,0.00,23.3,21.2,00.0,32.3,25.0,16.4,0000.0,0003.19,0001.59,0001.07
2022-10-24 05:27:00,,0816.9,5.00,0.00,23.3,21.2,00.0,32.3,25.0,16.6,0000.0,0003.30,0001.63,0001.07
2022-10-24 05:28:00,,0816.8,5.00,0.00,23.3,21.2,00.0,32.3,25.0,16.4,0000.0,0003.22,0001.59,0001.08
2022-10-24 05:29:00,,0816.9,5.00,0.00,23.3,21.2,00.0,32.2,25.0,16.1,0000.0,0003.18,0001.59,0001.09
2022-10-24 05:30:00,,0816.8,5.03,0.00,23.3,21.3,00.0,32.2,25.0,16.1,0000.0,0003.23,0001.56,0001.08
2022-10-24 05:31:00,,0817.1,4.98,0.00,23.3,21.3,00.0,32.2,25.0,16.3,0000.0,0003.69,0001.57,0001.08
2022-10-24 05:32:00,,0816.9,5.02,0.00,23.3,21.3,00.0,32.2,25.0,16.1,0000.0,0004.00,0001.58,0001.08
2022-10-24 05:33:00,,0817.0,5.00,0.00,23.3,21.4,00.0,32.2,25.1,16.1,0000.0,0003.99,0001.55,0001.08
2022-10-24 05:34:00,,0817.0,4.98,0.00,23.3,21.6,00.0,32.2,25.1,16.5,0000.0,0003.79,0001.53,0001.08
2022-10-24 05:35:00,,0817.0,5.00,0.00,23.3,21.7,00.0,32.2,25.2,17.7,0000.0,0003.64,0001.51,0001.07
2022-10-24 05:36:00,,0817.0,5.00,0.00,23.3,21.8,00.0,32.2,25.2,18.2,0000.0,0003.63,0001.51,0001.05
2022-10-24 05:37:00,,0817.0,5.00,0.00,23.4,21.8,00.0,32.2,25.3,18.3,0000.0,0004.19,0001.52,0001.04
2022-10-24 05:38:00,,0817.0,5.00,0.00,23.4,21.8,00.0,32.2,25.3,18.6,0000.0,0004.46,0001.51,0001.04
2022-10-24 05:39:00,,0817.0,5.00,0.00,23.4,21.8,00.0,32.2,25.3,18.7,0000.0,0004.45,0001.47,0001.04
2022-10-24 05:40:00,,0816.9,4.99,0.00,23.4,21.8,00.0,32.2,25.3,18.6,0000.0,0004.52,0001.46,0001.04
2022-10-24 05:41:00,,0817.0,5.00,0.00,23.4,21.8,00.0,32.2,25.3,18.2,0000.0,0004.87,0001.51,0001.05
2022-10-24 05:42:00,,0817.0,5.00,0.00,23.4,21.8,00.0,32.2,25.3,17.9,0000.0,0004.37,0001.51,0001.06
2022-10-24 05:43:00,,0817.0,5.00,0.00,23.5,21.9,00.0,32.2,25.4,17.7,0000.0,0004.14,0001.51,0001.06
2022-10-24 05:44:00,,0817.0,5.00,0.00,23.5,22.0,00.0,32.2,25.4,17.7,0000.0,0004.00,0001.51,0001.06
2022-10-24 05:45:00,,0817.0,5.00,0.00,23.5,22.1,00.0,32.3,25.5,17.8,0000.0,0003.98,0001.53,0001.05
2022-10-24 05:46:00,,0817.0,5.00,0.00,23.5,22.2,00.0,32.3,25.5,17.8,0000.0,0003.92,0001.51,0001.06
2022-10-24 05:47:00,,0817.0,4.98,0.00,23.6,22.3,00.0,32.3,25.5,17.6,0000.0,0003.91,0001.50,0001.08
2022-10-24 05:48:00,,0817.0,5.00,0.00,23.6,22.4,00.0,32.3,25.5,17.5,0000.0,0004.24,0001.49,0001.10
2022-10-24 05:49:00,,0816.9,5.00,0.00,23.6,22.5,00.0,32.3,25.6,17.4,0000.0,0004.12,0001.45,0001.11
2022-10-24 05:50:00,,0816.9,5.01,0.00,23.7,22.5,00.0,32.3,25.6,17.2,0000.0,0005.49,0001.43,0001.11
2022-10-24 05:51:00,,0817.0,5.00,0.00,23.7,22.6,00.0,32.4,25.7,17.2,0000.0,0005.76,0001.48,0001.11
2022-10-24 05:52:00,,0816.9,5.01,0.00,23.7,22.6,00.0,32.4,25.7,17.3,0000.0,0005.70,0001.52,0001.09
2022-10-24 05:53:00,,0816.9,4.98,0.00,23.8,22.6,00.0,32.4,25.7,17.7,0000.0,0005.65,0001.51,0001.09
2022-10-24 05:54:00,,0816.9,5.00,0.00,23.8,22.7,00.0,32.4,25.7,18.1,0000.0,0005.68,0001.55,0001.11
2022-10-24 05:55:00,,0817.3,5.01,0.00,23.8,22.6,00.0,32.5,25.8,18.6,0000.0,0006.02,0001.63,0001.13
2022-10-24 05:56:00,,0817.3,5.01,0.00,23.8,22.6,00.0,32.5,25.8,18.8,0000.0,0006.18,0001.66,0001.17
2022-10-24 05:57:00,,0817.3,5.01,0.00,23.8,22.6,00.0,32.5,25.7,18.9,0000.0,0006.57,0001.72,0001.21
2022-10-24 05:58:00,,0816.9,4.99,0.00,23.8,22.5,00.0,32.5,25.8,19.0,0000.0,0006.77,0001.81,0001.25
2022-10-24 05:59:00,,0816.9,5.01,0.00,23.8,22.5,00.0,32.5,25.8,19.1,0000.0,0006.64,0001.89,0001.28
